Wind_Speed
52 51 48 45 40 37 34 29 27 28 29 28 26 28 30 33 37 41 43 45 49 51 50 49 48 45 42 39 36 34 31 28 27 25 23 22 20 19 20 24 28 33 36 37 38 37 37 36 36 35 35 33 31 29 27 27 26 25 24 23 22 21 22
54 54 51 46 43 39 34 31 30 30 27 24 23 26 29 30 35 40 43 45 48 51 51 51 50 47 44 41 38 37 34 31 29 29 26 24 23 21 20 23 27 33 36 37 37 38 38 37 36 35 34 32 31 30 29 29 28 27 25 24 24 23 23
58 58 54 48 46 40 36 36 34 29 26 24 23 25 27 29 34 40 41 43 46 50 52 52 50 49 47 44 41 40 38 35 33 32 30 27 25 24 23 23 27 33 37 37 37 38 38 38 37 36 34 33 33 32 31 30 29 27 26 26 27 26 24
62 59 53 48 46 41 40 40 34 30 31 28 25 25 27 29 33 38 38 40 44 47 49 49 48 48 48 46 45 43 41 39 37 35 32 29 26 26 26 26 28 32 35 36 36 36 36 36 36 35 35 35 35 34 33 32 30 29 29 29 28 27 24
63 57 51 49 47 43 42 40 36 35 35 32 29 28 27 27 32 37 37 39 42 43 44 45 47 48 48 47 47 45 42 40 39 36 33 31 29 28 28 28 29 31 33 35 34 34 33 33 33 33 34 35 35 34 34 33 32 32 31 31 30 28 26
63 58 54 52 51 47 46 45 42 41 40 37 35 32 30 30 33 37 37 37 39 39 41 43 45 48 49 49 48 47 45 43 41 38 35 33 32 30 29 30 31 31 32 33 32 31 31 30 31 32 34 35 35 35 35 34 33 33 33 32 31 29 29
66 62 58 55 54 52 50 47 44 43 41 40 37 34 34 34 36 38 37 36 37 37 38 40 42 45 48 50 50 50 48 47 45 43 40 37 35 34 32 31 32 33 33 33 32 31 29 29 30 31 33 35 35 36 36 35 35 35 33 32 31 31 31
70 65 60 58 57 54 50 46 44 43 41 40 39 38 38 37 37 37 36 35 34 34 35 36 38 42 46 49 52 52 51 51 49 46 44 42 40 38 36 35 34 34 34 34 33 32 31 31 31 32 34 35 36 37 36 37 37 36 35 34 33 33 33
71 66 62 61 58 53 49 46 45 45 44 44 42 42 41 38 35 33 33 32 32 31 31 31 33 37 43 48 51 53 53 53 52 50 47 45 44 42 41 39 37 36 35 35 35 35 35 34 34 35 36 37 37 37 37 38 38 37 36 36 35 36 35
71 67 64 61 57 52 49 47 46 47 46 45 45 45 44 39 35 33 31 32 33 31 28 29 30 33 39 45 50 52 54 54 54 52 50 48 47 45 43 41 40 39 38 37 37 37 37 37 37 38 39 39 39 39 39 39 38 37 37 37 37 37 36
73 69 65 62 58 54 51 48 48 48 48 47 48 48 45 41 39 37 34 35 37 34 30 30 32 33 36 41 46 50 52 53 54 53 52 51 49 47 45 43 42 41 40 39 38 38 38 39 40 40 39 39 39 40 40 40 39 37 37 38 38 38 39
75 71 67 64 60 57 55 52 51 52 51 50 50 49 47 45 42 39 38 40 42 38 33 32 33 33 34 36 39 44 48 51 52 52 52 52 50 48 47 45 43 42 42 42 41 40 39 40 41 41 40 40 40 41 41 41 40 39 39 40 40 40 41
77 74 70 67 63 60 58 55 54 55 54 52 52 52 51 49 45 43 43 44 46 42 35 34 34 33 32 33 35 38 42 46 49 51 52 52 51 50 49 47 46 45 45 45 43 42 41 41 41 41 41 41 41 42 42 42 41 41 42 42 42 42 43
78 76 73 70 66 63 60 58 57 57 56 54 54 54 52 50 48 46 46 47 48 45 38 36 36 32 30 31 31 33 36 39 43 46 48 50 51 52 51 51 50 49 48 47 46 45 45 44 43 43 42 43 43 44 44 43 43 43 43 44 44 44 46
81 79 76 73 69 66 63 61 60 59 58 56 55 54 53 51 49 49 48 47 49 47 42 39 37 34 32 31 31 32 33 34 36 40 43 46 49 51 52 52 52 52 51 49 49 48 47 47 46 46 45 45 44 44 44 44 45 44 44 45 46 46 48
84 82 79 76 72 69 66 63 62 61 60 58 56 55 54 52 51 51 49 48 49 49 45 42 39 36 33 33 33 33 32 33 34 35 38 41 44 47 50 52 53 53 53 52 51 50 49 49 48 48 48 47 46 45 45 46 46 45 45 46 46 47 49
87 85 81 78 75 72 68 65 64 64 63 61 59 58 56 54 53 51 50 49 49 49 46 43 40 36 34 34 34 34 33 32 32 33 34 36 38 41 44 48 51 53 54 53 53 53 53 52 52 51 51 50 49 49 49 49 48 47 48 48 48 49 49
89 86 82 79 77 75 72 68 67 67 66 64 61 59 58 56 53 52 51 50 49 49 47 44 41 39 38 36 33 31 30 30 31 32 33 33 35 37 39 42 45 48 51 53 53 54 55 55 55 54 54 53 53 52 51 51 50 50 51 51 51 51 51
89 87 84 83 80 78 74 71 69 69 68 66 63 61 60 59 56 55 53 51 50 50 49 45 42 42 41 37 34 31 30 31 32 33 35 35 35 36 37 39 40 43 45 48 50 52 53 54 54 55 55 55 55 54 54 54 53 54 54 54 54 54 54
90 89 87 86 83 80 76 73 71 71 71 69 66 65 64 63 60 57 54 52 51 53 51 47 44 44 41 39 36 35 34 34 34 35 37 39 39 38 39 39 39 40 41 42 44 46 48 49 51 52 53 53 53 54 54 55 56 56 56 57 57 57 57
92 90 90 88 85 81 78 75 74 74 73 71 69 68 67 65 63 60 57 54 54 54 53 50 48 47 44 41 40 39 38 37 37 38 39 40 40 40 40 39 39 39 39 39 40 40 41 43 45 46 47 47 49 49 50 52 53 54 56 57 57 58 59
94 92 91 90 87 83 81 79 77 76 76 74 73 71 69 67 66 64 61 57 56 56 55 52 51 50 48 46 45 44 42 39 38 38 39 40 39 38 38 37 37 37 37 37 37 38 38 39 40 41 41 42 43 45 46 47 48 49 51 53 53 54 56
96 94 92 90 88 86 85 82 79 78 78 77 76 74 72 70 70 69 65 62 59 58 57 55 54 53 51 50 50 48 44 42 40 40 40 41 40 38 37 36 35 35 35 35 35 36 36 37 38 38 38 39 40 41 42 43 43 45 46 47 47 48 49
96 95 93 91 90 90 87 84 81 80 80 79 79 78 76 73 73 72 70 66 64 62 61 59 57 56 55 54 53 51 48 46 44 43 43 43 43 41 39 38 37 37 37 36 36 36 36 36 37 37 37 37 38 39 39 39 40 41 42 42 42 43 44
97 97 95 93 92 91 89 86 84 83 82 81 81 81 79 76 75 74 73 70 68 66 65 63 61 60 58 57 56 55 53 50 48 47 47 46 46 45 43 41 40 40 40 39 39 38 38 38 37 38 38 38 38 38 38 39 40 40 40 40 40 41 42
98 98 97 96 95 93 91 89 87 85 84 84 84 83 81 79 77 76 75 73 71 70 69 67 65 63 62 61 60 59 57 54 51 50 50 49 49 48 47 45 44 43 43 42 40 40 40 39 39 39 39 39 39 40 40 41 42 42 41 41 42 42 42
98 98 99 99 97 94 91 89 88 88 88 87 85 83 82 81 80 78 77 76 74 73 72 70 68 67 66 65 64 62 60 58 54 53 52 52 52 51 50 49 47 46 45 44 43 42 42 42 42 42 42 42 42 42 42 43 44 44 44 43 43 43 43
98 99 99 99 97 94 91 90 90 91 90 88 85 84 84 83 82 80 80 79 77 76 75 74 72 70 68 67 66 65 63 61 59 57 56 55 55 54 53 52 51 50 49 48 47 46 45 45 45 44 45 45 44 44 45 45 45 46 46 46 46 46 46
96 96 96 97 95 93 91 91 92 92 92 89 87 86 85 84 84 82 81 81 80 79 78 77 75 73 71 70 68 67 65 64 63 61 60 58 57 57 56 55 55 53 52 51 50 49 49 49 48 48 48 48 48 48 47 47 47 48 48 49 49 49 49
93 94 95 95 95 94 94 94 94 93 92 91 90 88 87 86 86 84 83 82 82 80 80 79 78 77 75 72 70 69 68 67 66 65 63 62 60 59 59 58 57 57 55 54 53 53 52 52 51 50 50 50 51 51 50 50 50 51 51 51 52 52 52
91 92 94 95 96 96 96 96 95 94 93 93 91 90 89 88 87 86 85 84 83 82 81 81 80 79 77 75 73 71 70 69 68 67 66 65 63 62 61 61 60 59 58 57 56 55 54 54 53 52 52 52 53 53 53 53 53 54 54 54 55 55 55
88 90 92 94 95 96 97 97 97 96 95 94 92 91 90 89 89 88 86 85 84 83 82 82 82 81 80 78 76 74 72 71 70 69 68 67 66 65 63 63 62 61 61 60 59 58 57 56 55 55 55 55 55 55 56 57 57 57 58 58 58 58 58
86 88 91 94 96 97 99 98 97 97 96 94 93 91 91 90 90 89 87 86 85 85 84 83 83 83 82 80 78 76 74 73 72 71 69 69 68 67 66 65 64 63 63 62 61 60 60 59 59 59 58 58 58 58 59 59 60 60 60 60 61 61 61
86 87 91 94 96 97 99 99 97 96 96 95 94 93 92 91 90 90 89 87 86 86 86 85 85 84 84 83 81 79 77 75 74 73 71 70 70 69 68 67 66 65 64 64 63 63 63 62 62 62 62 61 61 61 61 61 62 62 63 63 63 63 63
86 87 91 93 93 95 98 98 97 96 96 96 95 93 92 92 91 91 90 89 88 87 86 86 86 86 86 85 84 82 80 78 76 75 73 72 71 71 70 69 68 68 67 66 65 65 65 65 65 65 65 65 65 64 64 64 64 64 65 65 65 65 65
86 87 89 91 91 93 95 97 96 96 96 96 96 95 93 93 92 92 91 90 89 88 87 87 88 89 89 88 87 86 83 81 79 77 76 74 73 72 72 72 71 71 70 69 68 68 67 67 67 67 67 68 68 68 68 68 67 67 67 67 67 67 67
87 87 87 88 88 90 93 94 94 95 96 96 96 95 95 94 93 93 92 92 91 89 88 88 89 89 89 89 89 89 87 85 82 80 78 77 76 75 74 74 73 73 72 72 71 71 70 70 69 69 69 70 70 70 71 71 71 70 70 70 70 70 71
Wind_Direction
233 234 233 233 230 227 227 226 221 223 228 230 231 231 229 228 230 229 225 223 225 227 226 223 223 222 221 221 220 222 224 225 222 217 213 212 211 210 212 214 212 204 197 194 191 191 194 198 201 203 203 203 203 203 205 207 210 213 216 220 223 226 229
229 230 230 230 228 225 223 222 220 225 233 233 231 230 227 226 227 227 224 221 222 224 224 222 221 219 219 220 220 221 222 223 224 222 216 212 211 211 211 213 213 208 202 198 196 195 195 198 201 204 207 208 209 210 211 213 215 217 220 223 226 230 232
226 227 227 226 225 221 218 220 220 222 227 224 221 222 222 223 227 228 225 223 223 223 223 221 218 217 217 217 218 220 220 220 224 224 218 213 211 210 209 210 211 209 206 203 201 200 200 200 200 203 206 210 213 215 217 219 221 223 225 227 229 232 235
226 227 227 226 226 221 217 220 218 216 219 215 210 213 217 223 229 230 228 225 225 224 224 223 219 217 217 217 218 219 218 219 222 223 221 216 213 211 209 208 210 210 208 208 206 206 207 206 205 205 206 209 213 216 220 223 225 227 229 231 233 236 240
227 226 225 225 226 222 219 220 217 215 215 208 202 206 211 218 227 230 228 227 226 224 224 224 221 218 217 218 220 220 219 219 221 223 223 220 216 214 211 209 209 209 210 211 211 211 212 212 212 211 211 213 215 217 221 223 225 228 231 233 234 237 241
226 224 222 221 223 221 218 217 215 214 212 204 199 200 203 211 223 228 228 228 228 224 223 224 221 217 216 218 220 221 220 220 221 221 222 222 220 217 215 212 210 209 209 212 214 215 216 217 217 218 218 219 220 221 223 224 226 228 230 232 233 236 241
224 223 221 219 220 220 218 214 213 213 210 204 200 200 204 211 222 229 229 229 229 227 224 224 222 218 216 217 218 219 219 219 220 219 218 219 220 218 216 215 214 212 209 210 212 215 217 219 221 222 223 224 224 225 226 227 228 230 230 232 233 236 239
222 221 220 219 219 219 218 214 212 212 208 203 198 200 206 212 221 229 230 229 230 229 227 226 223 219 217 217 218 218 218 219 219 219 218 217 217 217 215 215 214 214 213 212 212 213 215 218 221 223 225 226 226 227 228 229 230 230 232 233 235 237 239
221 220 219 220 219 218 217 214 211 209 206 201 197 199 206 210 216 226 231 231 229 228 229 228 225 220 217 217 218 218 219 219 219 219 219 218 218 217 216 215 214 213 213 213 213 212 213 215 218 221 224 225 226 227 228 229 230 230 232 234 236 238 240
220 219 219 221 220 217 217 215 211 208 204 200 197 199 204 205 208 217 226 232 229 222 222 223 222 221 218 216 217 217 217 219 219 219 219 219 220 219 218 218 217 216 215 215 215 215 215 216 218 220 223 224 226 227 228 228 229 229 230 233 235 237 239
218 218 218 219 219 216 215 213 210 206 202 199 198 199 201 201 205 210 217 228 230 221 214 216 217 218 219 218 217 217 217 218 220 220 220 220 220 220 220 221 221 220 219 218 218 218 218 219 221 222 224 226 228 229 230 230 230 229 231 232 234 237 238
217 217 217 217 217 215 213 211 208 204 201 200 198 197 198 199 202 207 210 221 231 224 212 213 216 216 219 220 219 219 218 218 219 221 222 222 222 222 222 222 223 223 223 223 221 220 221 222 223 224 225 227 229 231 232 233 233 233 234 235 236 238 240
216 216 216 216 216 215 212 208 207 204 201 200 197 194 197 198 199 203 208 215 226 225 213 212 215 214 216 219 220 220 220 219 219 220 221 223 223 224 224 224 224 224 225 225 225 225 224 225 226 226 226 227 229 231 233 233 234 235 237 238 240 241 243
217 216 215 215 215 214 211 207 205 203 201 200 197 194 197 198 197 202 207 213 223 225 214 210 213 210 209 213 217 220 221 220 220 221 221 222 223 224 225 225 226 226 226 227 227 227 227 228 230 230 229 229 230 232 233 233 234 235 237 240 241 243 245
217 216 215 214 214 214 211 207 204 203 201 200 197 195 197 198 197 201 206 211 220 224 218 212 212 209 205 206 210 215 218 220 220 221 222 222 223 224 225 226 228 228 228 228 228 228 228 230 231 233 234 234 234 235 236 236 236 236 237 240 242 243 245
216 216 215 213 213 213 211 207 204 203 202 200 198 195 196 197 198 202 206 209 216 223 220 215 212 210 206 205 206 209 212 216 219 221 223 224 225 225 226 227 229 230 231 230 230 230 230 231 232 234 236 237 238 239 240 241 241 241 241 243 244 246 247
215 216 215 214 212 212 211 207 204 203 202 201 199 196 196 197 198 202 206 209 214 222 223 217 212 211 209 208 208 208 209 211 216 220 223 226 227 227 227 228 229 231 232 233 233 233 233 234 234 236 237 238 239 240 241 243 244 244 245 246 246 248 250
215 215 215 214 213 212 210 207 205 204 203 202 200 197 197 197 198 202 207 209 213 220 224 220 213 211 211 210 210 210 208 209 212 216 219 221 224 227 228 229 230 231 231 232 233 235 236 236 237 238 240 240 240 241 242 244 245 246 247 248 249 251 252
214 214 214 214 213 212 210 207 205 205 204 203 201 199 199 198 198 201 207 209 212 219 224 223 218 214 211 210 211 211 210 209 210 213 216 218 220 223 226 228 230 231 232 232 233 234 236 237 239 240 242 243 243 244 244 245 247 248 249 250 251 252 254
214 213 213 214 214 212 210 207 206 206 206 205 203 202 201 200 198 201 206 209 212 218 222 223 223 221 216 213 213 214 213 213 212 213 216 217 218 220 224 226 229 232 234 234 234 236 237 238 240 241 243 245 246 247 247 248 249 250 251 251 252 253 254
214 213 213 214 214 212 210 208 207 207 206 206 205 205 204 201 200 202 206 209 212 218 221 222 224 225 222 220 220 218 216 216 215 215 217 219 219 220 223 226 228 231 234 236 237 238 239 241 242 243 245 247 248 249 250 251 251 252 253 254 255 256 257
214 213 213 213 213 213 211 209 208 208 207 206 207 208 205 203 203 204 206 208 211 216 220 221 223 225 224 224 226 225 220 218 219 219 220 222 223 224 226 228 229 231 233 236 237 239 240 242 243 245 246 246 248 249 250 251 253 254 255 256 257 258 259
214 214 213 213 213 213 212 210 208 208 208 207 208 209 207 206 206 206 206 208 210 213 218 220 222 224 225 227 230 228 224 222 222 222 223 224 226 228 230 232 233 234 236 237 238 239 240 241 243 245 245 246 246 247 248 250 252 253 254 255 257 258 261
214 214 214 213 213 213 213 211 209 209 210 208 208 210 209 208 208 208 208 209 210 212 217 220 222 223 225 229 232 230 228 227 226 226 226 226 226 228 231 234 236 237 238 240 241 243 244 244 245 246 247 247 248 248 249 250 251 252 253 255 257 258 259
214 214 214 214 214 213 213 212 211 210 211 210 210 210 210 209 210 210 210 211 211 213 217 220 222 223 224 228 232 232 231 230 228 228 229 229 229 229 230 233 237 239 240 241 243 245 246 247 247 248 249 251 252 252 253 253 253 254 255 256 257 258 259
213 213 214 214 214 213 212 212 212 211 212 212 212 211 210 210 211 212 213 213 213 214 217 221 223 224 224 227 230 232 233 231 230 230 231 231 232 232 232 234 237 240 242 243 244 245 246 247 248 249 250 252 253 254 255 256 257 257 257 257 258 260 261
214 213 213 214 214 214 212 212 212 213 214 213 213 212 211 211 212 213 214 215 215 216 218 221 223 225 226 227 229 232 234 233 232 232 233 233 233 234 235 236 238 239 241 243 245 245 246 247 248 249 250 252 253 255 256 257 258 259 259 259 260 261 262
214 213 213 213 214 214 213 213 213 215 215 214 213 214 213 212 212 214 216 217 217 218 219 221 223 226 228 229 230 231 234 235 234 234 235 235 235 236 236 238 239 240 240 242 244 245 246 247 248 249 250 251 253 254 256 257 258 259 260 261 262 262 263
215 214 213 213 214 214 214 214 215 215 216 216 215 215 215 214 214 215 217 218 219 220 221 222 224 226 228 230 231 232 234 236 236 236 236 237 238 238 239 239 240 241 241 242 243 245 246 247 248 248 250 251 252 253 255 256 258 259 260 262 263 264 265
215 214 214 213 214 214 214 215 215 216 217 217 216 216 216 216 216 217 218 219 220 221 222 224 225 226 228 230 231 232 234 236 237 238 238 238 238 240 241 242 242 243 244 245 245 246 246 247 248 248 250 251 252 254 255 256 258 259 260 261 262 263 264
214 214 214 214 214 214 214 215 215 216 217 217 217 217 217 217 218 218 219 220 221 222 224 225 226 228 229 230 231 232 234 235 237 238 239 239 239 240 241 243 244 245 246 247 248 248 248 248 248 249 250 252 253 255 256 257 258 259 260 261 262 262 263
214 214 214 215 214 215 215 215 215 216 217 218 218 218 218 219 219 220 221 221 222 223 225 226 228 229 230 230 231 232 233 235 236 238 239 240 240 241 241 242 244 246 247 248 249 249 250 250 250 250 251 253 254 256 257 259 259 260 261 262 262 263 264
214 213 214 215 215 215 216 216 215 216 217 218 218 218 219 220 220 221 222 223 224 224 226 227 229 230 231 231 231 232 233 234 235 237 238 239 240 241 242 242 244 245 247 248 249 250 250 251 252 253 253 254 255 256 258 260 261 262 263 264 264 265 266
214 213 214 215 215 215 216 217 216 216 217 218 218 218 219 220 221 222 222 224 225 226 227 228 230 231 232 232 232 232 233 234 235 236 237 238 240 241 242 243 244 245 246 247 248 249 250 251 253 254 255 256 256 257 258 260 262 264 265 266 266 267 268
214 214 214 215 215 216 216 217 216 216 217 218 218 219 219 220 221 222 223 224 225 227 228 229 231 232 233 234 233 233 233 234 235 236 237 238 239 240 242 243 244 244 245 246 247 249 250 252 253 254 256 257 258 259 259 260 262 263 264 265 266 267 268
214 214 214 214 214 216 217 217 217 216 217 218 219 219 220 220 221 222 223 224 225 226 228 229 231 232 234 235 235 234 234 234 235 236 237 238 239 240 241 242 243 244 245 247 248 249 251 252 254 255 257 258 259 260 261 261 262 263 264 265 266 267 269
215 215 215 214 214 216 218 218 217 217 218 218 219 219 220 221 221 222 223 224 225 226 228 229 231 233 234 235 236 236 235 235 235 236 237 238 239 240 241 242 243 244 246 247 248 250 251 253 254 256 257 258 259 261 261 262 263 264 265 265 266 267 268
Height
10835 10839 10843 10847 10853 10856 10859 10864 10867 10866 10866 10870 10874 10876 10877 10879 10879 10879 10883 10887 10889 10892 10898 10904 10908 10913 10917 10921 10924 10925 10927 10929 10931 10932 10933 10934 10935 10937 10939 10941 10944 10945 10946 10947 10948 10950 10953 10957 10960 10962 10964 10966 10968 10971 10973 10975 10976 10978 10980 10981 10983 10984 10985
10828 10831 10835 10843 10848 10852 10858 10861 10862 10863 10867 10871 10872 10872 10873 10874 10872 10871 10876 10880 10882 10886 10891 10896 10902 10908 10913 10917 10920 10922 10924 10926 10928 10929 10931 10932 10933 10935 10937 10939 10942 10944 10944 10945 10947 10949 10950 10953 10957 10960 10963 10966 10968 10969 10971 10973 10974 10976 10978 10980 10981 10982 10983
10820 10822 10829 10838 10842 10849 10855 10855 10858 10862 10866 10867 10868 10869 10869 10867 10866 10867 10872 10876 10878 10881 10884 10890 10897 10902 10907 10911 10914 10917 10920 10922 10924 10925 10928 10930 10931 10933 10935 10937 10939 10941 10942 10944 10945 10947 10948 10950 10954 10957 10961 10963 10965 10967 10969 10970 10972 10974 10976 10977 10978 10979 10981
10811 10817 10826 10834 10838 10845 10849 10850 10856 10860 10861 10864 10865 10865 10865 10864 10864 10865 10869 10872 10873 10876 10881 10887 10894 10898 10903 10907 10909 10912 10915 10918 10919 10922 10925 10928 10929 10931 10933 10935 10936 10938 10940 10942 10944 10946 10947 10950 10952 10955 10958 10960 10962 10964 10966 10968 10970 10972 10973 10974 10975 10977 10979
10806 10815 10824 10830 10833 10839 10844 10847 10852 10855 10856 10860 10861 10861 10862 10862 10860 10861 10864 10867 10869 10873 10879 10883 10888 10894 10898 10902 10905 10908 10912 10914 10917 10920 10923 10925 10927 10929 10930 10932 10934 10936 10938 10941 10943 10945 10947 10950 10952 10954 10956 10957 10959 10961 10963 10965 10968 10969 10970 10972 10973 10975 10976
10803 10811 10817 10822 10825 10831 10835 10839 10844 10847 10850 10853 10855 10857 10859 10858 10857 10858 10861 10863 10866 10870 10874 10877 10881 10887 10892 10896 10900 10904 10907 10910 10912 10915 10919 10922 10924 10926 10928 10930 10931 10933 10936 10939 10942 10944 10946 10949 10951 10953 10954 10955 10957 10958 10960 10962 10964 10965 10967 10969 10971 10973 10974
10794 10801 10808 10814 10818 10822 10826 10832 10838 10841 10845 10850 10854 10855 10855 10855 10854 10855 10858 10861 10862 10866 10869 10872 10876 10882 10886 10890 10893 10897 10900 10904 10906 10909 10913 10916 10919 10923 10925 10927 10929 10931 10933 10936 10938 10941 10944 10946 10948 10950 10951 10952 10954 10955 10957 10959 10961 10962 10964 10966 10969 10970 10971
10784 10793 10802 10806 10810 10816 10822 10830 10835 10838 10844 10848 10851 10852 10852 10853 10853 10853 10856 10858 10859 10862 10865 10868 10871 10876 10881 10884 10887 10890 10894 10897 10900 10903 10907 10910 10914 10917 10920 10922 10924 10927 10930 10932 10935 10938 10940 10942 10944 10946 10947 10948 10950 10952 10954 10955 10956 10958 10961 10963 10965 10966 10967
10777 10788 10795 10799 10806 10814 10820 10826 10830 10834 10839 10842 10846 10848 10849 10851 10853 10853 10854 10854 10856 10860 10861 10864 10867 10870 10874 10877 10880 10884 10888 10892 10895 10899 10902 10906 10908 10911 10914 10917 10920 10923 10925 10927 10930 10932 10934 10936 10938 10940 10941 10943 10945 10947 10949 10950 10952 10955 10958 10959 10960 10961 10963
10774 10783 10790 10795 10803 10811 10816 10821 10826 10830 10834 10838 10842 10843 10846 10850 10851 10851 10851 10850 10852 10856 10858 10860 10862 10864 10867 10870 10874 10878 10882 10886 10890 10894 10898 10901 10904 10907 10911 10914 10917 10919 10921 10923 10926 10928 10930 10931 10932 10933 10935 10937 10940 10942 10944 10946 10948 10952 10954 10955 10956 10957 10959
10768 10775 10784 10790 10797 10804 10809 10815 10820 10825 10830 10833 10836 10839 10843 10846 10846 10847 10848 10846 10846 10850 10853 10855 10857 10859 10863 10866 10869 10873 10878 10882 10886 10890 10894 10897 10900 10904 10907 10910 10913 10915 10918 10920 10923 10925 10926 10927 10928 10930 10932 10934 10936 10939 10940 10943 10946 10949 10950 10951 10952 10953 10954
10760 10768 10777 10784 10790 10796 10802 10807 10813 10818 10823 10826 10830 10835 10838 10840 10842 10845 10845 10842 10841 10845 10850 10852 10853 10856 10860 10863 10866 10870 10874 10878 10882 10886 10890 10894 10898 10901 10904 10907 10909 10912 10914 10916 10919 10921 10922 10924 10925 10927 10929 10931 10933 10934 10936 10939 10943 10945 10946 10947 10948 10949 10951
10753 10761 10769 10776 10782 10788 10794 10801 10806 10810 10816 10820 10824 10829 10831 10833 10838 10840 10838 10837 10836 10840 10846 10849 10850 10854 10858 10860 10863 10866 10869 10873 10877 10881 10885 10889 10893 10897 10900 10903 10905 10907 10909 10911 10914 10917 10918 10920 10921 10923 10926 10927 10929 10931 10932 10936 10939 10941 10942 10943 10945 10946 10947
10746 10753 10761 10768 10774 10780 10787 10794 10799 10804 10810 10814 10818 10822 10825 10829 10833 10833 10833 10834 10834 10837 10843 10845 10847 10852 10855 10858 10861 10863 10865 10869 10872 10876 10880 10883 10887 10890 10893 10896 10899 10901 10904 10907 10910 10912 10914 10916 10917 10919 10921 10923 10925 10926 10929 10932 10934 10936 10938 10939 10940 10942 10942
10737 10743 10752 10760 10766 10773 10780 10787 10792 10798 10803 10807 10812 10817 10820 10824 10828 10828 10828 10831 10832 10833 10838 10841 10844 10848 10852 10854 10857 10859 10862 10865 10868 10871 10874 10877 10881 10884 10887 10891 10894 10897 10900 10903 10905 10908 10910 10912 10914 10915 10917 10919 10922 10923 10926 10928 10930 10932 10934 10934 10935 10936 10936
10727 10734 10742 10751 10759 10766 10773 10780 10787 10792 10796 10801 10806 10812 10816 10819 10822 10823 10824 10828 10828 10828 10833 10838 10841 10845 10848 10851 10853 10856 10859 10862 10864 10867 10869 10872 10876 10879 10883 10886 10888 10891 10894 10898 10901 10904 10906 10908 10910 10911 10913 10915 10918 10920 10922 10923 10925 10928 10930 10930 10931 10931 10931
10718 10725 10734 10744 10751 10758 10765 10773 10780 10784 10789 10794 10799 10805 10809 10814 10817 10819 10822 10824 10823 10823 10828 10834 10839 10843 10845 10847 10849 10852 10855 10859 10862 10864 10866 10869 10871 10874 10878 10880 10883 10886 10889 10892 10895 10898 10900 10902 10904 10906 10908 10910 10912 10915 10916 10918 10920 10923 10924 10924 10925 10926 10926
10709 10718 10729 10737 10743 10750 10757 10766 10772 10777 10782 10788 10793 10800 10805 10810 10814 10816 10817 10818 10818 10818 10823 10830 10835 10838 10840 10843 10847 10850 10854 10857 10859 10860 10862 10864 10867 10870 10872 10874 10877 10880 10882 10885 10888 10890 10893 10895 10898 10900 10902 10903 10906 10909 10911 10913 10915 10917 10918 10919 10920 10921 10922
10702 10713 10721 10726 10733 10742 10750 10758 10766 10771 10777 10782 10788 10795 10799 10803 10807 10809 10811 10814 10815 10815 10818 10824 10829 10832 10836 10841 10845 10848 10850 10853 10854 10856 10858 10860 10862 10865 10867 10869 10871 10874 10876 10879 10881 10884 10886 10889 10891 10894 10895 10897 10900 10903 10906 10907 10909 10910 10911 10913 10914 10915 10916
10693 10704 10711 10716 10725 10734 10744 10752 10759 10764 10769 10775 10782 10787 10791 10795 10801 10804 10807 10810 10811 10810 10813 10819 10823 10826 10831 10837 10840 10843 10845 10847 10850 10851 10853 10855 10857 10859 10861 10864 10866 10869 10871 10874 10876 10878 10881 10883 10886 10888 10890 10893 10895 10897 10899 10901 10902 10904 10905 10906 10907 10908 10909
10685 10695 10702 10709 10718 10728 10737 10745 10751 10756 10762 10769 10775 10779 10784 10790 10796 10799 10802 10804 10806 10806 10809 10814 10818 10821 10825 10831 10833 10836 10838 10841 10844 10847 10849 10851 10853 10855 10857 10860 10862 10865 10867 10869 10871 10874 10876 10878 10880 10883 10885 10887 10889 10891 10892 10894 10895 10897 10898 10899 10900 10901 10902
10675 10685 10693 10701 10711 10721 10728 10734 10741 10748 10755 10762 10767 10772 10778 10784 10788 10792 10795 10799 10801 10802 10804 10809 10813 10815 10820 10824 10825 10827 10832 10837 10841 10843 10846 10848 10850 10853 10855 10857 10859 10861 10863 10865 10868 10870 10872 10874 10876 10878 10880 10882 10883 10885 10886 10887 10889 10891 10892 10892 10894 10894 10895
10665 10675 10686 10696 10705 10711 10716 10724 10734 10741 10746 10753 10759 10764 10770 10776 10780 10784 10789 10792 10795 10797 10799 10803 10807 10810 10814 10816 10816 10821 10828 10833 10836 10840 10843 10845 10847 10850 10852 10854 10856 10858 10860 10862 10864 10866 10868 10870 10872 10873 10875 10877 10878 10879 10880 10882 10883 10884 10885 10886 10888 10889 10889
10658 10669 10679 10688 10694 10699 10706 10717 10727 10732 10738 10746 10751 10755 10761 10768 10772 10776 10781 10786 10789 10792 10794 10797 10800 10805 10808 10809 10811 10816 10822 10826 10830 10835 10838 10840 10843 10845 10848 10850 10852 10854 10856 10858 10860 10862 10864 10866 10867 10869 10870 10871 10873 10874 10875 10877 10877 10878 10879 10881 10882 10883 10884
10648 10659 10669 10677 10683 10690 10700 10709 10717 10724 10731 10738 10742 10746 10753 10760 10764 10769 10774 10779 10783 10786 10788 10790 10794 10799 10802 10804 10806 10810 10814 10819 10825 10829 10832 10835 10838 10840 10843 10845 10847 10849 10851 10853 10856 10858 10859 10861 10863 10864 10865 10866 10868 10869 10870 10871 10871 10872 10874 10876 10876 10876 10877
10639 10649 10659 10666 10672 10680 10690 10700 10709 10716 10722 10726 10731 10738 10746 10753 10758 10763 10768 10773 10777 10780 10782 10785 10788 10792 10796 10799 10801 10804 10808 10813 10819 10823 10826 10829 10832 10834 10837 10840 10842 10844 10845 10848 10851 10853 10854 10856 10858 10859 10860 10862 10863 10864 10865 10865 10865 10867 10869 10869 10870 10871 10871
10629 10638 10646 10653 10660 10670 10682 10693 10701 10706 10710 10716 10725 10733 10740 10746 10751 10757 10762 10766 10770 10774 10777 10779 10783 10786 10790 10793 10796 10800 10803 10807 10813 10817 10820 10823 10826 10828 10831 10834 10837 10839 10840 10842 10845 10847 10849 10851 10852 10854 10855 10856 10857 10859 10859 10859 10860 10861 10862 10863 10864 10865 10866
10616 10626 10635 10644 10654 10666 10678 10687 10693 10696 10702 10711 10720 10726 10732 10739 10745 10750 10754 10759 10763 10767 10770 10773 10776 10780 10783 10787 10791 10795 10798 10802 10807 10810 10813 10816 10819 10822 10825 10828 10831 10833 10835 10837 10839 10841 10843 10845 10847 10848 10849 10851 10852 10853 10853 10854 10855 10856 10856 10857 10858 10859 10860
10609 10620 10632 10642 10653 10664 10672 10677 10682 10687 10695 10704 10711 10717 10723 10731 10736 10741 10747 10751 10756 10760 10763 10767 10770 10774 10777 10780 10785 10790 10794 10796 10800 10803 10807 10810 10813 10816 10819 10822 10825 10827 10830 10832 10833 10835 10837 10839 10840 10842 10843 10844 10846 10846 10847 10848 10849 10849 10850 10851 10852 10852 10853
10603 10615 10626 10636 10646 10654 10660 10665 10672 10680 10688 10695 10702 10708 10715 10721 10727 10733 10739 10744 10749 10753 10757 10760 10763 10767 10771 10775 10780 10785 10788 10790 10793 10796 10800 10804 10807 10810 10812 10815 10818 10821 10823 10825 10827 10829 10831 10833 10835 10836 10837 10838 10839 10840 10841 10842 10842 10843 10844 10844 10845 10846 10847
10596 10607 10617 10626 10635 10642 10647 10654 10663 10671 10678 10685 10692 10700 10706 10713 10719 10725 10730 10736 10741 10746 10750 10753 10756 10760 10765 10769 10773 10777 10781 10783 10786 10789 10793 10797 10800 10803 10806 10808 10811 10814 10816 10819 10821 10822 10825 10827 10829 10830 10831 10832 10832 10833 10834 10835 10835 10836 10837 10837 10838 10839 10840
10590 10601 10611 10620 10628 10634 10638 10645 10653 10661 10668 10675 10684 10691 10698 10705 10710 10716 10722 10728 10733 10738 10742 10746 10749 10752 10757 10762 10766 10770 10773 10776 10779 10782 10786 10790 10793 10796 10800 10802 10805 10807 10809 10811 10813 10815 10818 10819 10821 10824 10825 10826 10826 10827 10827 10827 10828 10829 10830 10830 10831 10832 10833
10583 10594 10604 10610 10616 10622 10626 10633 10643 10652 10659 10667 10676 10683 10690 10696 10702 10708 10715 10721 10726 10731 10735 10738 10741 10744 10748 10754 10758 10762 10766 10769 10772 10776 10779 10782 10786 10789 10792 10795 10798 10800 10802 10804 10806 10808 10810 10811 10813 10815 10817 10819 10820 10820 10821 10821 10821 10822 10823 10824 10825 10825 10825
10575 10586 10594 10598 10603 10611 10616 10623 10634 10643 10651 10659 10667 10674 10681 10688 10695 10701 10708 10713 10719 10723 10726 10730 10733 10736 10739 10744 10749 10754 10758 10761 10765 10768 10772 10775 10778 10782 10785 10788 10791 10793 10795 10797 10799 10800 10801 10803 10804 10806 10808 10810 10812 10813 10814 10815 10815 10815 10816 10816 10817 10818 10818
10566 10575 10581 10586 10594 10602 10608 10615 10625 10636 10643 10651 10659 10666 10673 10681 10687 10693 10698 10705 10710 10714 10718 10722 10726 10727 10730 10734 10739 10745 10749 10754 10757 10761 10764 10768 10771 10774 10777 10780 10783 10785 10787 10789 10791 10792 10793 10795 10796 10797 10799 10801 10802 10804 10806 10807 10808 10808 10808 10809 10809 10809 10810
10556 10563 10569 10577 10586 10594 10600 10607 10617 10627 10635 10642 10650 10657 10665 10672 10678 10684 10689 10696 10701 10706 10710 10713 10716 10718 10721 10724 10729 10734 10740 10745 10749 10753 10757 10760 10764 10767 10770 10772 10775 10777 10779 10781 10783 10784 10785 10787 10788 10790 10791 10792 10794 10795 10796 10798 10799 10800 10800 10801 10801 10801 10802
10548 10555 10561 10571 10582 10590 10593 10601 10612 10622 10627 10633 10641 10648 10655 10662 10669 10675 10681 10686 10691 10697 10701 10704 10706 10709 10713 10716 10719 10724 10730 10735 10740 10745 10749 10752 10755 10758 10761 10764 10767 10769 10771 10773 10774 10776 10777 10779 10780 10782 10783 10784 10785 10786 10787 10788 10789 10791 10792 10792 10793 10793 10793